星链-32150 (STARLINK-32150)

导读

STARLINK-32150是美国SpaceX公司于2024年7月28日发射的星链第二代卫星,属于SpaceX星链全球卫星互联网星座项目。它重约800公斤,运行在近地轨道,配备星间激光通信与增强型相控阵天线,可为全球提供高速低延迟宽带服务,尤其覆盖偏远地区,设计寿命约5-7年,退役后会再入大气层销毁,减少空间碎片影响。

Basic Information
目录编号:
60294
目录名称:
STARLINK-32150
国际标识:
2024-132S
轨道中心:
EARTH
卫星名称:
星链-32150 (STARLINK-32150)
卫星全名:
星链-32150 (STARLINK-32150)
卫星状态:
在轨 (已飞行690 天)
发射日期:
2024-07-28 UTC
国别 :
美国 (US)
星等 :
--
Orbit Information
数据来源 国际轨道数据
星历时间: 2026-06-18T04:00:21+0800
7小时前
查看轨道信息
半长轴: 6848.86km
偏心率: 0.0001049
轨道倾角: 53.161°
近地点辐角 97.749°
升交点赤经 307.221°
平近点角 262.363°
近地点: 470.004km
远地点: 471.442km
周期: 94.013分钟
每日圈数: 15.317059
Detailed Information
卫星平台:
Starlink v2.0 mini
运营商:
太空探索技术公司
运营商所在国:
美国
制造商(研发单位):
太空探索技术公司
制造商所在国:
美国
使用方式:
暂无
Satellite Introduction
星链(Starlink)计划是由太空探索技术公司(SpaceX)提出的一个巨型低轨卫星互联网星座项目,计划在2019年至2024年间在太空搭建由约1.2万颗卫星组成的“星链”网络,其中1584颗将部署在地球上空550千米处的近地轨道,并从2020年开始工作。该卫星仍在工作。
2D Orbit Map
3D Orbit Map
Orbit Altitude Analysis Chart
Orbit Inclination Analysis Chart
Orbit Comprehensive Analysis Chart
View Comprehensive Chart